Weather History for Crestview, FL

Change the Weather History Date:

Sunday, December 1, 2013

  Actual Average Record
Temperature  
Mean Temperature 52 °F -  
Max Temperature 65 °F - - ()
Min Temperature 40 °F - - ()
Degree Days  
Heating Degree Days 12    
Growing Degree Days 2 (Base 50)    
Moisture  
Dew Point 42 °F    
Average Humidity 70    
Maximum Humidity 86    
Minimum Humidity 44    
Precipitation  
Precipitation 0.00 in - - ()
Sea Level Pressure  
Sea Level Pressure 30.17 in    
Wind  
Wind Speed 3 mph (North)    
Max Wind Speed 7 mph    
Max Gust Speed -    
Visibility 10 miles    
Events      
T = Trace of Precipitation, MM = Missing Value Source: NWS Daily Summary

Daily Weather History Graph

Daily Weather History Graph

Search for Another Location

Airport:

Trip Planner

Search our weather history database for the weather conditions in past years. The results will help you decide how hot, cold, wet, or windy it might be!

Date:

Astronomy

Dec. 01, 2013 Rise Set
Actual Time 6:25 AM CST 4:44 PM CST
Civil Twilight 5:59 AM CST 5:10 PM CST
Nautical Twilight 5:30 AM CST 5:40 PM CST
Astronomical Twilight 5:00 AM CST 6:09 PM CST
Moon 4:48 AM CST 3:49 PM CST
Length of Visible Light 11h 10m
Length of Day
10h 18m
Waning Crescent, 2% of the Moon is Illuminated
Dec 1
Waning Crescent
Dec 2
New
Dec 9
First Quarter
Dec 17
Full
Dec 25
Last Quarter

Hourly Weather History & Observations

Time (CST) Temp. Windchill Dew Point Humidity Pressure Visibility Wind Dir Wind Speed Gust Speed Precip Events Conditions
12:58 AM 43.0 °F 41.3 °F 37.9 °F 82% 30.27 in 10.0 mi NNE 3.5 mph - N/A   Clear
1:58 AM 45.0 °F - 40.1 °F 83% 30.27 in 10.0 mi North 1.2 mph - N/A   Mostly Cloudy
2:58 AM 43.3 °F - 38.8 °F 84% 30.25 in 10.0 mi North 2.3 mph - N/A   Mostly Cloudy
3:58 AM 44.4 °F - 39.0 °F 81% 30.25 in 10.0 mi NNW 2.3 mph - N/A   Mostly Cloudy
4:58 AM 44.6 °F 43.1 °F 38.8 °F 80% 30.26 in 10.0 mi NNE 3.5 mph - N/A   Overcast
5:58 AM 42.3 °F - 37.6 °F 83% 30.26 in 10.0 mi North 2.3 mph - N/A   Partly Cloudy
6:58 AM 40.8 °F 37.8 °F 37.0 °F 86% 30.27 in 10.0 mi ENE 4.6 mph - N/A   Partly Cloudy
7:58 AM 47.7 °F - 36.5 °F 65% 30.27 in 10.0 mi North 3.5 mph - N/A   Overcast
8:58 AM 50.2 °F - 36.3 °F 59% 30.27 in 10.0 mi East 3.5 mph - N/A   Overcast
9:58 AM 55.4 °F - 38.1 °F 52% 30.25 in 10.0 mi Variable 1.2 mph - N/A   Scattered Clouds
10:58 AM 61.0 °F - 42.4 °F 51% 30.22 in 10.0 mi Calm Calm - N/A   Clear
11:58 AM 64.9 °F - 43.2 °F 45% 30.19 in 10.0 mi West 6.9 mph - N/A   Clear
12:58 PM 65.5 °F - 43.2 °F 44% 30.15 in 10.0 mi NW 6.9 mph - N/A   Partly Cloudy
1:58 PM 65.3 °F - 43.9 °F 46% 30.12 in 10.0 mi NNW 3.5 mph - N/A   Clear
2:58 PM 64.4 °F - 43.9 °F 47% 30.10 in 10.0 mi North 5.8 mph - N/A   Clear
3:58 PM 63.3 °F - 44.8 °F 51% 30.09 in 10.0 mi North 2.3 mph - N/A   Partly Cloudy
4:58 PM 57.0 °F - 45.5 °F 65% 30.08 in 10.0 mi Calm Calm - N/A   Partly Cloudy
5:58 PM 53.1 °F - 45.3 °F 75% 30.09 in 10.0 mi Calm Calm - N/A   Clear
6:58 PM 52.7 °F - 45.5 °F 76% 30.08 in 10.0 mi SSW 1.2 mph - N/A   Partly Cloudy
7:58 PM 50.0 °F - 44.8 °F 82% 30.07 in 10.0 mi Calm Calm - N/A   Partly Cloudy
8:58 PM 50.5 °F - 44.6 °F 80% 30.06 in 10.0 mi Calm Calm - N/A   Mostly Cloudy
9:58 PM 49.1 °F - 44.6 °F 84% 30.06 in 10.0 mi Calm Calm - N/A   Scattered Clouds
10:58 PM 48.2 °F - 44.2 °F 86% 30.04 in 10.0 mi Calm Calm - N/A   Overcast
11:58 PM 48.6 °F - 44.2 °F 85% 30.04 in 10.0 mi North 2.3 mph - N/A   Mostly Cloudy